Wind_Speed
30 30 29 29 28 27 25 24 24 24 22 20 19 18 17 17 18 17 17 18 19 21 20 22 21 20 21 21 21 20 18 20 16 15 13 12 14 19 22 21 28 16 15 30 32 20 18 16 19 16 18 33 27 17
32 32 31 30 28 26 25 23 22 20 18 18 17 16 15 16 16 17 14 14 17 19 16 17 17 18 20 21 23 24 23 16 10 12 17 13 14 18 23 15 28 24 31 17 24 33 13 28 16 22 13 26 30 29
33 32 30 28 27 25 23 22 20 18 16 16 16 15 15 15 15 13 12 14 17 19 18 18 18 22 22 22 25 26 23 23 26 25 19 17 14 19 19 27 23 32 33 36 24 26 38 30 29 22 29 25 27 27
33 31 29 27 26 24 22 19 18 17 15 13 15 16 15 15 14 14 14 16 17 21 23 14 17 20 19 19 23 17 18 22 22 25 27 29 27 20 26 29 30 31 34 40 47 35 33 42 33 25 29 32 32 29
32 30 28 26 24 22 20 18 17 16 14 14 14 14 15 14 14 14 16 17 20 19 23 21 14 15 17 21 15 14 13 16 19 23 28 31 33 34 35 35 43 40 39 36 39 43 47 37 32 37 31 28 28 36
31 29 27 24 22 20 18 16 17 14 14 14 14 17 14 14 13 16 18 14 11 15 21 22 9 13 15 16 19 21 18 18 22 26 29 33 34 29 23 43 49 45 45 44 43 36 44 50 41 32 37 31 25 29
30 28 26 23 20 18 17 16 16 12 12 13 15 10 12 13 13 16 17 16 13 13 16 16 6 4 6 7 13 12 18 22 23 27 36 35 36 32 42 53 48 42 42 45 46 46 44 44 49 37 38 34 31 29
29 27 24 21 18 17 16 15 12 10 11 14 15 12 13 14 15 14 10 11 12 10 12 8 4 4 5 7 9 15 20 26 36 36 42 41 37 39 48 52 47 42 41 43 44 45 45 41 48 42 37 40 32 27
28 26 22 19 17 15 14 10 10 10 10 10 10 12 13 14 14 12 13 12 14 11 8 10 11 3 6 9 14 16 19 25 26 35 36 31 38 45 54 46 43 39 39 39 38 45 44 45 50 41 37 41 39 32
26 24 20 18 15 14 12 10 8 10 10 11 13 14 16 12 13 13 15 17 12 14 23 12 4 6 11 15 17 12 12 17 20 30 22 37 55 52 50 44 32 30 36 37 38 48 46 50 50 41 40 36 42 39
24 21 17 15 13 11 12 7 5 9 12 16 17 16 15 16 15 18 10 6 6 6 5 2 7 13 17 23 20 10 9 10 12 18 19 23 52 51 48 49 47 42 38 40 40 46 50 48 49 42 43 40 42 43
21 17 14 13 11 10 8 10 9 9 10 12 11 12 16 16 6 6 6 6 7 5 3 6 15 19 25 23 18 8 13 9 12 10 12 26 47 49 53 54 45 37 47 46 45 48 56 52 41 41 43 44 43 38
17 14 12 10 9 7 7 11 10 12 13 15 15 11 5 4 8 6 10 7 5 4 7 10 19 18 16 11 8 8 8 12 17 13 25 47 57 44 31 34 33 34 44 47 51 52 57 50 38 38 40 38 43 38
13 11 10 8 9 5 8 8 8 12 14 12 9 6 6 7 8 10 11 10 9 11 15 19 15 17 21 18 9 7 10 10 10 10 27 47 54 33 18 27 34 41 44 50 52 57 56 44 30 34 35 39 44 40
10 9 7 6 4 6 9 10 12 12 13 13 7 6 9 9 10 9 11 13 17 19 19 14 16 13 17 10 6 8 7 8 9 19 45 43 30 23 9 15 28 37 44 49 55 54 55 25 33 35 33 32 29 39
7 4 2 5 3 7 10 10 13 16 18 13 7 7 7 10 9 11 14 18 19 23 21 15 13 5 5 6 7 7 7 7 31 38 33 30 22 14 9 19 21 27 34 44 47 45 21 27 33 32 29 29 27 23
5 3 5 6 4 9 12 16 21 22 6 6 7 13 11 12 13 13 13 11 9 14 14 14 7 6 7 7 9 6 22 29 36 38 29 29 21 8 10 21 34 41 37 41 32 18 22 27 27 31 24 21 23 25
6 8 4 3 4 9 12 15 16 8 10 11 13 9 8 8 7 6 8 10 13 14 13 12 20 17 9 13 25 15 27 31 38 25 21 16 10 11 22 33 33 26 24 11 17 18 21 20 22 21 23 22 23 21
4 4 5 4 5 9 15 11 9 9 11 15 13 10 11 7 1 6 8 7 7 9 10 10 8 13 15 17 18 21 26 32 36 18 16 9 7 22 18 16 15 12 10 10 13 21 21 19 22 22 20 18 15 27
5 4 4 4 8 10 10 6 11 11 18 16 13 13 8 9 8 7 6 8 5 5 9 11 15 15 21 22 27 28 26 26 28 13 21 5 3 13 17 18 16 12 11 12 13 9 3 11 25 16 14 14 7 11
4 3 4 4 6 8 7 9 11 14 14 13 13 13 14 11 9 10 8 8 5 5 9 10 10 11 13 15 18 17 17 18 20 9 13 14 13 16 20 19 20 19 15 13 7 6 5 2 11 13 13 14 13 11
5 6 7 8 9 9 10 17 14 15 11 12 11 12 12 12 12 11 7 12 14 19 16 13 14 13 16 14 14 18 13 9 11 2 11 20 25 20 23 16 17 17 18 17 15 14 9 10 18 17 17 18 17 14
6 10 11 11 9 10 10 19 21 17 16 15 12 10 14 16 22 17 16 24 22 23 16 16 17 10 11 5 7 7 5 3 8 9 24 28 27 24 22 20 21 20 17 13 11 8 10 12 13 10 14 15 14 16
9 10 9 10 13 16 20 22 22 18 19 20 14 19 19 14 27 22 23 27 21 17 18 13 7 6 4 5 3 2 5 24 19 13 23 25 24 24 21 17 14 14 15 19 16 12 9 10 13 11 12 12 11 7
8 9 8 13 11 15 20 22 23 23 24 23 21 20 17 19 14 22 29 33 24 28 16 10 3 3 3 4 5 8 21 22 16 16 18 20 18 18 18 18 15 11 9 9 10 8 2 5 9 8 8 8 7 7
7 8 8 13 13 14 15 16 18 19 20 23 25 25 21 14 13 17 31 26 25 16 15 11 8 9 6 9 10 21 24 19 19 21 18 14 13 12 11 13 10 8 7 6 7 11 6 3 3 6 7 8 7 7
9 10 9 10 12 15 15 16 16 19 21 23 27 24 25 26 22 42 41 31 22 27 15 13 11 13 14 13 13 21 21 15 14 16 19 15 13 11 8 6 5 6 7 4 3 3 6 6 7 9 12 12 11 12
14 11 12 14 14 13 14 16 19 20 20 20 27 30 32 27 33 33 35 27 26 25 21 21 21 18 19 20 16 18 15 16 13 9 7 6 6 6 6 8 7 5 4 4 4 4 2 1 2 4 6 9 11 12
13 11 13 14 11 12 13 18 20 22 21 22 23 30 36 39 41 38 32 27 21 20 19 19 18 19 17 16 15 12 9 11 10 10 7 6 6 4 5 7 8 8 9 9 9 9 9 7 6 4 1 1 1 3
10 8 5 5 6 8 10 17 20 22 22 23 24 23 25 30 35 40 40 36 28 20 17 16 16 15 14 12 10 10 9 8 7 6 5 7 8 7 8 11 13 11 12 12 11 12 13 11 9 8 6 5 3 2
10 8 9 9 9 12 13 14 11 13 19 18 18 19 22 27 32 37 41 42 38 33 27 24 23 19 16 15 12 9 7 4 3 3 5 8 10 14 11 14 13 13 14 13 12 11 14 13 15 15 14 14 14 13
9 9 7 13 14 11 10 13 11 8 11 13 13 13 20 23 29 31 34 37 39 40 37 31 25 23 22 19 15 15 14 14 18 14 12 16 12 14 17 12 14 11 11 12 13 15 17 19 21 22 24 24 24 24
6 5 8 9 8 8 9 9 8 11 17 17 16 17 25 23 24 25 27 28 30 33 35 34 33 32 31 30 30 30 27 22 17 13 11 12 10 6 8 11 11 11 10 8 13 18 21 22 22 23 24 24 24 23
Wind_Direction
328 327 324 322 321 319 316 311 307 302 297 296 296 292 287 286 288 287 283 278 273 267 264 263 258 254 254 252 252 253 260 252 246 232 219 210 218 217 224 218 217 216 212 218 219 219 234 214 222 214 230 221 234 244
326 324 322 320 319 317 312 308 305 298 289 291 292 289 287 290 294 297 295 287 282 276 267 265 260 258 256 253 252 251 248 246 227 214 216 211 210 210 221 218 216 219 221 206 214 218 193 220 212 205 193 215 228 239
323 322 320 318 316 314 311 308 305 300 288 287 289 287 288 294 301 306 312 307 301 295 286 271 259 258 259 260 257 256 254 249 242 235 234 230 224 226 222 228 220 220 219 223 221 206 204 204 216 202 209 213 214 227
322 321 320 316 314 313 309 308 303 295 284 290 286 287 286 292 302 307 307 308 309 306 297 281 263 254 264 265 254 252 242 239 240 241 241 237 234 245 236 236 233 224 227 230 230 215 206 216 219 215 211 218 225 226
323 322 318 315 313 312 310 306 297 287 269 278 277 284 283 289 299 307 305 305 302 292 286 278 277 243 256 268 258 244 244 232 241 247 246 247 247 246 249 248 242 229 226 225 234 228 224 218 221 221 211 211 223 232
323 321 317 316 316 314 310 300 295 280 269 279 276 282 280 292 311 307 307 313 301 298 298 306 292 261 259 261 264 252 247 251 257 259 257 253 251 251 257 254 248 243 236 231 233 234 230 227 228 233 220 219 212 226
322 320 319 315 314 311 303 297 294 278 275 282 284 264 278 289 305 310 309 313 307 287 295 317 326 270 274 267 245 242 239 260 265 265 258 257 258 253 255 256 253 249 244 238 235 235 235 224 230 235 228 215 217 217
321 318 317 315 314 307 300 296 284 277 295 289 276 263 279 294 307 308 305 308 315 303 299 289 305 285 269 261 264 268 260 258 261 262 264 257 253 245 255 258 255 251 249 244 233 233 234 224 226 231 236 226 212 209
320 318 317 314 312 304 298 284 286 297 295 278 261 271 281 296 300 293 303 305 294 281 276 275 295 307 321 306 296 283 273 266 271 265 260 253 245 239 254 263 265 262 253 249 241 230 227 219 216 225 229 232 219 214
317 316 316 313 309 301 291 275 281 304 294 282 275 279 291 291 299 299 300 309 267 257 261 265 269 294 324 322 311 293 256 246 260 271 275 254 261 263 263 265 261 257 260 246 232 220 215 216 210 216 221 223 222 218
314 314 315 310 306 299 294 295 285 286 301 299 279 274 280 288 284 278 278 242 245 257 242 49 359 336 333 316 307 286 257 255 259 265 245 260 274 283 284 275 272 257 250 247 230 212 205 208 209 213 218 219 220 221
312 313 312 305 302 292 263 281 290 297 303 314 312 296 292 289 262 202 218 229 240 257 286 327 327 319 311 317 294 275 263 249 253 251 237 260 295 295 281 271 265 240 235 234 223 204 198 203 197 204 211 214 218 217
312 309 303 296 291 271 292 307 303 301 302 306 304 296 284 247 226 214 212 216 211 253 272 319 334 326 319 295 266 251 255 251 274 242 252 278 313 317 290 269 226 211 206 211 202 196 193 195 194 199 204 210 216 212
309 304 296 281 286 313 299 307 299 306 309 308 299 277 254 224 233 226 230 211 211 254 275 279 316 310 296 294 267 254 261 280 262 261 286 319 336 332 304 207 191 186 188 193 187 187 188 191 195 185 186 203 210 211
306 302 285 287 272 277 319 303 295 295 302 306 275 248 248 249 262 270 256 237 235 256 272 311 307 286 281 258 257 274 270 258 273 305 323 342 2 4 111 159 172 171 173 180 182 181 186 186 182 170 180 186 196 201
302 305 310 288 350 334 336 339 326 316 313 296 243 249 290 290 292 279 277 274 267 267 278 294 292 264 275 274 276 258 275 280 319 334 355 354 19 27 151 154 160 163 171 172 174 173 169 155 161 173 175 181 183 191
301 285 263 273 353 329 319 316 317 317 265 261 307 323 315 302 295 284 275 266 265 280 276 267 260 247 289 286 291 288 341 342 343 350 344 350 24 53 117 141 145 146 145 162 164 145 145 152 162 168 162 163 184 189
289 291 278 243 305 316 315 315 301 284 288 335 340 342 326 326 310 294 278 272 264 268 278 255 259 265 260 285 292 326 341 332 338 5 350 1 36 91 130 142 141 143 140 165 175 146 149 151 149 162 170 172 181 181
310 306 301 299 285 320 325 320 324 303 328 349 359 360 0 10 285 311 324 294 281 264 269 265 262 262 267 276 293 309 324 323 330 9 2 360 330 110 151 169 138 139 156 167 173 166 164 159 165 166 166 179 171 187
331 318 314 1 349 335 332 324 335 330 345 351 4 9 30 41 27 12 358 355 327 285 270 270 287 288 268 270 286 299 310 310 325 14 34 73 28 90 121 135 148 150 158 161 179 204 146 175 171 171 192 187 209 211
17 34 19 348 6 347 341 339 348 342 346 17 31 22 25 31 18 21 29 14 356 351 345 332 321 308 298 301 302 310 315 314 323 335 16 88 115 98 113 121 135 141 144 135 118 116 142 174 202 213 216 186 222 228
358 18 41 37 16 13 9 359 353 0 10 37 40 52 65 58 35 15 353 12 17 0 357 341 319 296 305 309 315 314 323 333 323 314 67 112 103 105 118 123 112 126 139 139 143 144 150 162 170 179 191 196 200 209
48 62 42 29 22 15 8 17 17 26 26 29 29 20 4 4 21 30 33 21 1 346 346 315 308 317 322 347 328 342 344 73 80 110 102 110 113 110 111 126 115 113 109 123 142 158 155 151 152 159 170 175 188 201
62 43 34 22 28 24 35 37 37 30 32 32 23 42 35 38 24 26 15 354 347 328 327 317 341 323 321 333 344 39 92 95 87 139 119 107 105 108 112 111 120 132 130 116 112 116 123 156 173 158 143 143 148 159
48 37 46 39 56 69 75 64 54 45 47 53 29 14 15 12 2 15 6 345 9 22 4 359 1 341 70 54 110 113 118 92 89 131 133 127 112 93 104 103 100 112 132 154 167 115 64 140 139 149 167 178 177 179
56 47 72 79 87 90 73 54 49 38 30 24 22 25 15 2 357 354 13 5 13 24 35 48 62 70 94 98 109 125 127 120 101 81 62 133 141 142 90 64 50 61 88 119 136 142 215 235 188 198 203 208 211 214
71 79 87 74 110 93 74 61 54 52 42 31 33 36 29 25 17 1 5 18 26 39 47 53 64 89 98 95 99 127 131 119 103 100 88 66 52 46 52 38 14 349 345 2 44 229 246 263 257 246 242 247 247 246
74 94 101 103 101 83 67 53 35 33 37 38 40 44 34 27 21 17 25 27 41 45 59 68 73 78 98 113 122 126 103 78 62 65 60 41 36 45 39 40 49 66 60 53 47 54 55 37 295 270 263 252 243 240
60 124 125 129 115 77 53 46 46 51 57 60 56 46 52 50 40 35 35 34 36 33 54 65 72 73 82 99 103 107 98 78 88 78 60 47 42 39 50 52 74 85 77 68 63 59 51 41 39 31 13 251 238 246
93 114 133 137 124 93 66 74 69 66 66 65 60 54 47 44 46 40 39 42 47 55 58 59 67 81 85 96 99 103 103 72 94 59 31 9 19 58 70 74 66 79 80 73 60 42 19 29 39 38 41 41 47 48
93 90 94 68 99 128 87 83 81 73 81 64 58 56 53 52 51 48 44 41 45 46 54 62 63 66 71 77 82 78 59 42 29 46 70 82 88 80 65 65 62 59 46 45 42 51 48 56 65 66 67 68 71 72
82 107 85 80 108 119 93 81 78 72 84 63 41 31 55 60 58 56 51 45 42 47 56 58 58 58 57 59 63 72 64 64 59 62 91 82 92 92 75 82 67 58 67 72 75 72 75 76 75 75 74 73 71 71
63 91 116 98 96 102 120 121 114 79 70 60 55 46 60 53 57 59 50 47 45 45 47 50 53 55 58 61 63 68 71 72 78 81 85 85 80 84 100 103 102 98 87 78 91 90 85 84 82 80 77 75 73 71
Height
3102 3097 3093 3089 3085 3081 3077 3073 3070 3068 3066 3064 3062 3060 3059 3057 3055 3056 3057 3056 3056 3055 3056 3055 3056 3057 3058 3061 3062 3064 3067 3067 3070 3073 3076 3077 3078 3079 3081 3083 3087 3091 3091 3093 3100 3102 3104 3105 3106 3108 3109 3110 3116 3119
3096 3091 3087 3083 3079 3075 3071 3067 3064 3062 3060 3059 3057 3056 3055 3053 3052 3050 3051 3051 3050 3050 3051 3049 3049 3050 3051 3053 3056 3057 3061 3063 3064 3066 3068 3070 3070 3071 3072 3074 3079 3085 3084 3085 3087 3085 3093 3096 3098 3098 3103 3106 3110 3112
3090 3085 3080 3076 3072 3068 3065 3061 3059 3057 3055 3054 3054 3053 3052 3050 3048 3048 3048 3045 3044 3043 3044 3043 3043 3042 3044 3046 3047 3050 3055 3056 3057 3060 3062 3064 3065 3064 3065 3066 3070 3072 3074 3075 3079 3081 3087 3088 3091 3094 3098 3100 3104 3107
3083 3078 3074 3069 3066 3062 3059 3056 3054 3053 3051 3050 3050 3049 3048 3047 3046 3046 3045 3043 3041 3038 3035 3036 3036 3037 3037 3038 3040 3043 3045 3047 3049 3052 3053 3055 3056 3057 3057 3058 3060 3064 3067 3067 3067 3074 3078 3079 3084 3089 3091 3096 3098 3101
3077 3072 3067 3063 3059 3056 3053 3050 3049 3047 3046 3046 3045 3045 3045 3044 3043 3042 3041 3039 3036 3036 3031 3031 3032 3032 3031 3032 3035 3037 3039 3041 3043 3044 3045 3047 3048 3052 3050 3050 3046 3052 3055 3058 3059 3066 3067 3070 3076 3081 3085 3089 3091 3094
3070 3065 3061 3057 3054 3051 3048 3045 3044 3042 3042 3042 3042 3042 3041 3040 3040 3039 3037 3034 3032 3029 3027 3024 3027 3026 3024 3026 3028 3032 3034 3036 3036 3037 3037 3036 3038 3045 3040 3031 3031 3039 3044 3049 3050 3057 3057 3062 3067 3073 3077 3081 3085 3088
3064 3060 3055 3051 3048 3045 3043 3041 3039 3038 3038 3038 3038 3038 3038 3037 3037 3036 3034 3032 3029 3027 3026 3022 3021 3021 3021 3020 3023 3025 3027 3028 3028 3027 3023 3027 3029 3033 3025 3013 3017 3025 3030 3036 3041 3045 3047 3055 3055 3063 3068 3073 3077 3081
3058 3053 3049 3046 3043 3041 3039 3037 3036 3035 3035 3035 3035 3035 3035 3034 3033 3032 3030 3028 3026 3026 3024 3022 3020 3021 3021 3021 3021 3021 3021 3020 3016 3016 3012 3015 3020 3020 3005 2990 3005 3012 3017 3020 3027 3034 3037 3045 3047 3054 3060 3064 3069 3075
3052 3048 3044 3041 3038 3037 3035 3033 3032 3032 3031 3031 3031 3032 3031 3031 3029 3028 3026 3025 3024 3027 3022 3019 3018 3019 3019 3019 3018 3017 3015 3012 3009 3002 3004 3008 3003 2987 2971 2987 2993 2999 3004 3009 3016 3021 3028 3032 3038 3045 3052 3056 3061 3068
3046 3043 3039 3037 3034 3033 3031 3030 3030 3030 3029 3029 3029 3029 3028 3027 3025 3025 3022 3021 3020 3019 3017 3015 3016 3015 3016 3014 3011 3011 3008 3006 2998 2993 2995 2985 2968 2969 2974 2975 2982 2986 2990 2994 2998 3007 3016 3020 3029 3037 3042 3048 3054 3061
3040 3038 3035 3033 3031 3030 3028 3027 3027 3027 3027 3026 3024 3024 3024 3023 3023 3021 3020 3019 3018 3016 3013 3014 3014 3013 3012 3008 3007 3006 3003 2999 2990 2985 2985 2969 2947 2950 2960 2960 2964 2972 2974 2978 2986 2994 3004 3012 3020 3027 3033 3040 3046 3053
3035 3033 3031 3029 3027 3026 3026 3025 3025 3025 3024 3023 3022 3020 3019 3018 3016 3017 3016 3016 3014 3013 3012 3013 3012 3009 3007 3005 3002 3000 2997 2992 2982 2979 2973 2951 2940 2940 2936 2933 2939 2947 2954 2963 2973 2983 2992 3002 3012 3018 3024 3032 3040 3047
3030 3028 3027 3026 3025 3024 3024 3024 3024 3022 3021 3020 3019 3016 3015 3015 3014 3012 3011 3011 3011 3011 3011 3010 3008 3005 3004 3001 2999 2997 2991 2982 2975 2967 2954 2937 2920 2909 2904 2900 2910 2922 2933 2948 2960 2973 2986 2998 3005 3010 3017 3025 3031 3040
3026 3025 3024 3023 3022 3022 3022 3021 3021 3020 3019 3017 3016 3014 3013 3009 3008 3007 3008 3008 3010 3009 3009 3008 3006 3006 3000 2999 2995 2991 2985 2978 2968 2957 2943 2922 2915 2905 2889 2887 2897 2908 2922 2938 2953 2967 2982 2992 2999 3005 3014 3020 3027 3036
3022 3021 3021 3021 3021 3021 3020 3019 3018 3017 3016 3015 3013 3010 3005 3006 3005 3005 3005 3006 3007 3005 3005 3005 3003 3001 2998 2994 2991 2988 2982 2972 2963 2953 2939 2920 2918 2910 2901 2901 2907 2914 2923 2938 2953 2966 2981 2988 2994 3002 3009 3017 3023 3031
3020 3019 3020 3020 3020 3019 3018 3017 3016 3014 3012 3010 3007 3004 3004 3003 3004 3003 3002 3002 3002 3002 3002 3002 2999 2996 2994 2992 2989 2983 2978 2969 2962 2949 2938 2925 2924 2919 2913 2914 2918 2924 2932 2946 2958 2973 2977 2984 2993 3001 3007 3015 3020 3026
3018 3018 3019 3019 3019 3018 3017 3015 3014 3011 3007 3005 3003 3002 3002 3000 2999 2998 2997 2997 2997 2997 2998 2999 2999 2995 2992 2988 2985 2981 2976 2968 2958 2949 2940 2932 2930 2928 2925 2925 2927 2937 2946 2956 2965 2970 2976 2983 2990 2997 3003 3009 3017 3023
3017 3017 3016 3017 3018 3017 3015 3013 3011 3008 3004 3003 3001 3000 2998 2997 2995 2994 2993 2993 2993 2993 2993 2993 2993 2991 2988 2985 2982 2979 2974 2968 2961 2951 2946 2940 2938 2935 2938 2935 2944 2949 2953 2952 2964 2972 2978 2983 2991 2998 3005 3010 3014 3019
3017 3016 3016 3016 3015 3015 3013 3010 3009 3006 3003 3000 2999 2997 2995 2993 2993 2992 2991 2989 2989 2989 2989 2988 2987 2984 2984 2982 2980 2978 2976 2969 2961 2954 2950 2946 2941 2929 2941 2942 2950 2956 2959 2962 2966 2972 2978 2984 2990 2996 3003 3008 3013 3019
3017 3016 3016 3015 3015 3014 3012 3010 3008 3005 3002 3000 2998 2995 2994 2993 2992 2991 2990 2988 2987 2986 2986 2984 2982 2981 2981 2979 2978 2976 2974 2970 2963 2957 2952 2950 2947 2945 2949 2953 2959 2963 2967 2967 2973 2965 2974 2981 2988 2993 3000 3004 3009 3013
3017 3017 3016 3016 3015 3014 3012 3010 3008 3006 3002 3000 3000 2997 2996 2995 2993 2991 2989 2988 2986 2985 2983 2981 2979 2978 2977 2976 2974 2972 2971 2967 2965 2960 2956 2955 2954 2952 2956 2959 2963 2966 2970 2971 2972 2976 2981 2987 2988 2994 2997 3000 3009 3012
3018 3018 3017 3017 3015 3014 3013 3011 3009 3006 3004 3003 3001 3000 2998 2996 2994 2992 2990 2988 2986 2984 2981 2979 2977 2975 2973 2972 2971 2968 2967 2966 2964 2962 2960 2962 2958 2961 2963 2967 2967 2970 2973 2975 2979 2984 2986 2991 2998 3001 3005 3004 3007 3009
3020 3020 3019 3018 3017 3016 3017 3012 3009 3007 3005 3004 3002 3001 2998 2996 2995 2992 2989 2988 2985 2982 2977 2976 2973 2972 2971 2970 2968 2968 2967 2967 2965 2961 2963 2965 2966 2968 2970 2973 2975 2976 2978 2980 2982 2984 2988 2992 2992 2995 2997 3000 3003 3006
3024 3023 3022 3021 3021 3020 3018 3015 3012 3010 3008 3006 3005 3003 3000 2998 2996 2992 2989 2986 2982 2978 2974 2971 2970 2970 2970 2969 2969 2968 2969 2967 2969 2969 2969 2971 2971 2973 2976 2977 2978 2980 2982 2984 2987 2990 2991 2990 2992 2995 2997 2999 3002 3004
3028 3028 3027 3026 3025 3025 3022 3020 3019 3017 3015 3014 3011 3009 3005 3000 2996 2993 2989 2984 2977 2974 2973 2970 2968 2969 2970 2970 2970 2971 2973 2973 2973 2972 2974 2976 2978 2980 2979 2980 2982 2983 2983 2984 2985 2987 2990 2991 2992 2995 2997 2999 3001 3003
3029 3031 3032 3030 3030 3029 3027 3026 3025 3023 3021 3018 3015 3011 3004 3001 2998 2996 2989 2984 2980 2976 2973 2971 2970 2971 2973 2972 2973 2974 2977 2979 2980 2981 2980 2980 2982 2984 2984 2983 2983 2985 2986 2987 2987 2988 2992 2991 2992 2994 2997 2999 3001 3002
3034 3035 3034 3033 3033 3033 3033 3032 3030 3027 3024 3021 3021 3014 3010 3006 3004 2997 2990 2987 2984 2979 2977 2976 2976 2976 2978 2978 2978 2980 2983 2985 2986 2987 2988 2989 2989 2989 2989 2989 2988 2987 2987 2988 2989 2991 2993 2992 2993 2994 2996 2997 2998 3000
3038 3038 3038 3039 3039 3039 3038 3036 3033 3030 3029 3030 3026 3023 3020 3018 3016 3008 3000 2994 2990 2989 2987 2985 2984 2984 2985 2986 2987 2988 2989 2991 2991 2993 2994 2994 2994 2993 2992 2992 2991 2991 2990 2990 2991 2993 2994 2994 2993 2993 2993 2994 2996 2997
3042 3042 3043 3042 3043 3043 3042 3041 3039 3039 3039 3037 3034 3031 3027 3024 3021 3015 3009 3004 3000 2997 2994 2994 2992 2992 2993 2993 2994 2996 2997 2996 2997 2998 2998 2998 2997 2997 2996 2995 2995 2995 2995 2994 2994 2995 2994 2993 2993 2994 2995 2995 2995 2995
3046 3046 3046 3046 3046 3047 3047 3047 3046 3045 3044 3043 3041 3039 3036 3031 3028 3025 3019 3013 3008 3005 3002 3001 2999 2999 2999 2999 3000 3001 3001 3001 3002 3001 3001 3000 3000 3000 2999 2999 2999 2998 2999 2999 2998 2998 2997 2996 2995 2994 2994 2993 2993 2994
3048 3049 3049 3048 3049 3051 3051 3051 3051 3050 3049 3048 3046 3044 3042 3039 3035 3030 3026 3022 3017 3013 3010 3009 3008 3007 3006 3006 3006 3005 3005 3004 3003 3003 3002 3002 3003 3003 3003 3003 3004 3003 3002 3002 3002 3001 3000 2998 2997 2996 2995 2995 2994 2994
3052 3053 3053 3052 3053 3054 3055 3055 3054 3053 3053 3052 3050 3047 3046 3044 3040 3038 3036 3034 3030 3025 3022 3020 3019 3015 3013 3012 3010 3010 3009 3008 3007 3007 3006 3007 3007 3007 3008 3008 3008 3008 3007 3007 3006 3005 3004 3004 3003 3002 3001 3000 3000 3000
3056 3055 3057 3057 3057 3057 3058 3058 3058 3057 3057 3056 3055 3053 3051 3048 3044 3045 3044 3042 3040 3037 3034 3031 3028 3026 3025 3023 3020 3018 3016 3014 3013 3012 3012 3012 3013 3013 3013 3014 3014 3015 3015 3014 3013 3013 3012 3011 3011 3010 3010 3009 3009 3009